Location: *
(51.0333°S, 178.4667°E)
Time: 13:23:15
(UTC+00:00)

STARLINK-62 - Pass Details

Date: 15 November 2019
Orbit: 529 x 530 km, 53.0° (Epoch: 15 December)

Event Time Altitude Azimuth Distance (km) Brightness Sun altitude
Rises 10:35:49 0° 254° (WSW) 2,698 7.6 -18.6°
Reaches altitude 10° 10:38:02 10° 253° (WSW) 1,806 6.7 -18.7°
Maximum altitude 10:42:09 82° 164° (SSE) 551 3.6 -18.9°
Enters shadow 10:44:19 27° 79° (E) 1,060 4.8 -19.0°
